Location: B�di�
(14.6834°N, 3.1047°W)
Time: 03:33:21
(UTC+00:00)

Okean-O - Pass Details

Date: 24 January 2020
Orbit: 639 x 640 km, 98.2° (Epoch: 16 February)

Event Time Altitude Azimuth Distance (km) Brightness Sun altitude
Rises 18:29:56 0° 169° (S) 2,932 6.1 -6.0°
Reaches altitude 10° 18:32:07 10° 170° (S) 2,024 5.3 -6.5°
Maximum altitude 18:36:32 84° 258° (WSW) 646 2.7 -7.6°
Drops below altitude 10° 18:40:57 10° 347° (NNW) 2,026 5.2 -8.6°
Sets 18:43:09 0° 347° (NNW) 2,935 6.0 -9.1°
